Theta_e
298 298 298 298 298 298 298 298 298 298 298 298 298 298 299 298 298 299 299 299 299 299 299 299 299 299 299 299 299 301 301 301 300 299 299 299 300 300 300 300 300 300 300 300 302 303 304 304 305 306 306 309 312 313 313 311 310 311 312 312 312 312 313 315 317 317 317 317 316 317 317 316 317 318 318 319 320 320 320 322 322 323 326 327 328 326 323 322
298 297 298 298 298 298 298 298 298 298 298 298 298 299 299 298 299 299 299 299 299 299 299 299 299 299 299 299 300 301 303 301 299 299 299 299 300 300 301 301 300 300 300 301 302 304 305 305 306 307 307 309 311 312 312 312 311 310 311 310 310 312 314 316 316 316 316 315 315 316 316 315 315 316 317 317 318 318 319 321 320 322 326 327 328 327 325 326
297 297 297 298 298 298 298 298 298 298 298 298 299 299 299 298 299 299 299 299 299 299 299 299 299 300 299 300 301 301 304 304 300 300 299 299 300 300 300 301 301 301 301 303 303 304 305 306 307 307 308 309 310 311 311 312 313 311 311 309 310 314 315 316 315 315 315 314 314 315 315 315 315 315 315 316 316 317 318 318 317 318 320 320 323 323 322 326
297 297 297 297 298 298 298 298 298 298 298 299 298 298 299 298 299 298 299 298 299 299 299 299 299 300 300 300 302 302 305 306 301 299 299 299 300 300 300 300 301 301 302 304 304 304 305 306 306 307 309 309 310 312 310 312 314 313 312 310 311 315 316 315 315 314 314 313 313 313 314 314 314 314 314 315 315 317 317 316 315 315 315 315 316 316 317 320
297 297 297 297 297 297 297 298 298 298 298 298 298 299 299 298 299 298 299 298 299 299 299 299 299 300 301 299 301 304 306 304 300 299 299 299 299 299 300 300 301 301 303 304 304 304 305 306 306 307 308 308 310 311 311 313 313 312 313 312 311 315 316 315 315 314 313 313 312 312 312 313 313 313 314 314 314 315 316 315 314 314 314 314 314 315 315 316
296 297 297 297 297 297 297 297 298 298 298 299 298 299 298 298 298 298 298 298 299 299 299 299 299 301 302 300 299 302 304 301 299 299 299 299 299 299 300 300 301 301 304 305 305 305 305 306 306 305 307 308 309 309 310 312 311 311 312 311 312 314 314 314 314 313 313 312 311 311 311 311 312 312 313 313 313 314 314 314 314 314 314 314 315 315 316 317
296 297 297 297 297 297 297 297 298 298 298 298 299 298 298 298 298 298 298 299 299 299 299 299 299 301 303 303 301 299 300 300 299 299 299 299 299 299 301 301 301 302 305 306 306 306 305 306 305 305 306 307 307 307 309 309 309 310 311 311 313 313 313 313 312 312 312 312 311 310 310 310 311 312 312 312 312 312 313 313 313 313 313 314 314 314 315 317
296 297 297 297 297 297 297 297 298 298 298 298 299 298 298 298 298 298 298 299 299 299 299 299 299 301 302 303 302 299 299 299 299 299 299 299 299 300 301 301 301 302 305 306 306 306 306 306 305 305 306 307 307 307 309 308 308 310 310 311 311 312 311 311 310 310 311 311 311 311 310 310 311 311 311 311 311 312 312 313 312 312 313 313 313 313 314 315
296 296 297 297 297 298 297 297 298 298 298 298 298 298 298 298 298 298 299 298 299 299 299 299 299 300 300 301 301 300 299 300 300 299 299 299 299 301 302 302 301 301 305 306 306 307 307 307 306 306 307 308 307 305 307 307 308 309 309 310 309 309 309 309 309 310 311 311 311 311 311 311 311 311 311 311 311 312 312 312 312 312 312 313 313 313 314 314
296 296 297 297 297 297 297 297 298 298 298 298 298 298 298 298 298 299 299 298 299 299 299 299 299 299 299 299 300 300 299 300 300 299 299 299 300 301 302 301 301 301 303 306 306 306 308 307 306 307 307 307 306 305 306 307 307 307 307 308 308 308 308 309 310 310 310 310 311 311 310 311 311 311 310 310 311 312 312 311 311 312 312 312 313 312 313 313
296 296 296 297 297 297 297 297 298 298 298 298 298 298 299 298 299 299 299 299 299 299 299 299 299 300 299 298 300 300 300 300 300 299 299 300 301 302 302 302 302 301 302 305 305 306 307 307 307 308 307 306 306 306 307 306 306 306 306 306 307 308 308 309 309 310 309 309 310 310 309 309 309 310 310 310 311 311 311 311 311 312 312 312 312 312 312 312
296 296 296 297 297 297 297 297 298 298 298 298 298 299 299 299 299 299 299 300 299 299 299 300 300 300 300 299 300 300 300 301 300 299 299 300 302 302 302 303 303 302 303 304 305 305 306 307 308 309 307 306 306 306 307 306 306 307 307 306 306 307 308 309 309 309 309 308 309 309 309 309 308 309 310 311 311 311 311 311 311 312 312 311 311 311 311 310
296 296 296 297 297 297 297 297 298 298 298 298 299 299 299 299 299 299 300 300 299 299 300 301 301 300 300 300 300 299 299 300 299 299 300 301 302 302 302 304 304 304 304 305 305 306 306 307 309 310 308 306 306 306 306 306 307 307 307 306 306 307 308 310 309 308 308 308 307 308 309 310 309 310 311 311 311 311 311 311 311 311 311 311 311 310 310 310
296 296 296 296 297 297 297 297 297 298 298 298 299 299 299 299 299 299 300 300 300 300 300 302 303 302 301 300 299 299 299 299 299 299 300 301 302 302 303 305 305 305 305 306 306 306 306 306 308 309 308 306 305 306 306 306 307 306 306 307 307 308 308 308 308 307 307 307 306 307 309 310 311 311 311 311 311 310 310 310 310 310 310 310 310 310 310 310
296 296 296 296 296 297 297 297 297 298 298 299 299 300 300 299 299 299 300 300 300 300 301 301 303 303 302 301 299 298 299 299 299 299 300 301 302 303 304 305 306 306 306 306 306 306 305 306 307 307 306 305 305 306 306 306 306 305 306 307 307 307 306 306 307 307 306 307 307 307 308 309 309 309 309 310 310 309 309 309 309 309 310 310 310 310 309 308
296 296 296 296 296 297 297 297 297 298 298 299 299 300 300 300 299 299 299 300 300 300 301 301 301 302 302 301 299 298 299 300 299 299 300 301 302 303 304 305 306 307 306 305 305 305 304 305 307 307 305 304 305 305 305 305 305 305 306 306 306 306 305 305 306 306 306 306 307 307 307 307 307 308 308 308 308 308 308 308 308 309 309 309 309 308 308 307
296 296 296 296 296 297 297 297 297 298 298 299 300 300 300 299 300 300 300 300 301 300 300 301 302 302 301 299 299 299 300 300 299 299 300 301 303 304 304 305 306 307 307 304 304 304 303 304 306 305 304 304 304 304 305 305 305 305 306 306 306 306 306 306 306 306 306 306 307 307 307 307 307 307 308 308 307 307 307 307 307 307 307 306 306 306 306 305
296 296 296 296 296 296 297 297 297 298 298 299 300 300 301 301 300 300 301 300 301 301 300 300 302 303 302 299 300 300 300 300 299 298 300 301 302 304 304 305 306 306 307 305 302 303 303 304 304 304 304 303 303 304 305 305 305 305 305 306 305 306 306 305 306 306 306 306 306 307 308 308 307 307 308 308 307 306 306 305 305 305 305 305 304 304 304 304
296 296 296 296 296 296 297 297 297 298 298 298 299 299 302 303 302 299 299 300 300 300 301 301 302 302 301 299 299 300 300 301 300 298 299 301 302 304 304 305 305 306 306 306 304 302 303 304 303 303 302 303 303 303 304 305 305 305 305 305 305 306 306 305 305 306 306 306 306 307 307 307 307 308 308 306 304 304 303 303 303 303 303 303 303 303 303 303
296 296 296 296 296 296 297 297 297 298 298 299 299 300 303 305 305 301 299 299 300 300 300 301 301 301 300 299 299 300 299 300 300 298 299 301 302 303 304 304 305 304 305 306 305 302 302 303 303 303 302 302 303 302 303 304 304 304 303 304 305 305 305 304 305 306 306 306 306 307 307 308 308 307 305 303 302 302 302 302 302 302 302 302 302 302 302 302
296 296 296 296 296 296 296 297 297 297 298 299 299 301 302 303 305 304 301 300 299 300 300 300 300 300 299 299 299 300 300 300 299 298 299 300 302 303 304 304 305 304 303 304 304 303 302 302 302 303 302 302 302 302 302 304 305 304 302 302 304 304 304 304 305 306 306 307 307 307 308 308 306 303 302 302 302 302 302 302 302 302 302 302 302 302 302 302
296 296 296 296 296 296 296 296 297 297 298 299 299 300 300 300 302 302 302 301 299 300 300 300 299 298 298 298 299 301 301 300 299 298 299 300 302 304 304 304 305 305 304 303 303 302 302 301 302 302 302 302 302 301 301 303 305 304 302 303 303 303 304 304 305 305 306 307 307 308 308 305 303 302 302 303 302 301 301 301 301 301 301 302 302 302 302 301
296 296 296 296 296 296 296 296 296 297 298 299 300 300 300 300 300 301 302 302 301 300 300 300 300 298 298 298 299 302 301 300 300 299 299 300 302 304 304 304 304 304 305 304 302 302 301 300 301 302 302 302 302 301 301 302 304 303 302 303 303 304 305 305 305 305 306 307 307 308 307 304 303 303 302 302 302 301 301 301 301 301 301 301 301 301 301 301
295 295 296 296 296 296 297 296 296 297 297 298 299 299 299 299 299 301 302 303 302 301 300 301 300 299 298 299 299 302 302 300 299 300 299 300 301 303 304 303 304 303 304 305 303 302 301 300 301 302 301 302 301 301 301 302 303 304 303 303 304 304 305 305 305 306 306 307 307 308 309 305 304 304 302 301 301 301 300 300 300 300 300 300 300 300 300 301
295 295 295 295 296 297 298 297 296 296 297 297 298 298 298 298 298 299 302 304 302 301 301 301 300 299 298 299 299 301 302 300 299 300 300 300 301 303 303 303 303 303 304 305 304 301 300 300 301 301 300 302 302 301 301 302 302 304 303 303 303 304 305 306 306 307 308 308 307 307 310 308 305 303 302 302 301 300 300 299 299 300 300 300 300 300 300 300
295 295 295 295 296 298 299 297 295 297 298 296 296 298 297 298 298 298 303 307 303 301 302 301 300 299 299 300 299 300 302 300 299 299 300 300 301 303 303 302 302 302 303 304 304 301 300 301 301 300 300 301 301 301 301 302 303 303 303 303 303 303 306 307 307 308 309 309 308 305 308 309 307 304 302 302 301 300 299 299 299 299 300 300 300 300 300 300
295 294 295 295 296 297 298 296 295 297 297 295 296 297 297 299 298 299 305 309 303 301 301 300 300 299 300 300 299 300 301 300 299 300 300 300 300 302 302 302 303 302 302 304 304 302 300 301 302 300 300 300 300 300 300 302 303 303 303 303 303 304 306 308 308 308 309 309 308 304 304 309 311 307 304 303 301 299 298 298 298 299 299 300 300 300 299 299
295 294 295 295 296 296 296 295 295 295 295 294 296 297 298 299 299 301 307 306 301 300 300 300 300 299 299 300 299 300 300 299 300 300 300 300 299 301 302 301 302 302 302 303 303 302 300 300 302 301 300 299 299 299 300 302 302 302 302 303 303 304 307 308 308 308 309 309 305 302 303 308 311 308 304 303 301 298 298 298 298 299 299 299 299 300 300 299
295 295 295 295 296 296 295 296 295 294 294 294 295 297 298 299 299 302 307 304 300 300 300 300 300 299 299 300 299 299 300 299 300 300 301 300 298 300 301 300 300 301 302 302 302 302 300 300 302 302 300 299 299 298 300 302 302 301 302 303 304 307 308 308 309 309 309 308 303 301 302 305 308 307 304 304 301 298 298 298 298 299 299 299 299 299 299 299
295 295 295 295 296 295 297 298 295 294 294 294 295 296 297 299 303 307 307 302 300 300 300 299 300 299 299 300 299 299 300 299 299 300 301 300 298 299 301 300 298 300 303 302 302 302 300 301 302 302 300 299 298 298 300 302 302 302 303 303 305 308 309 308 309 309 307 305 302 300 301 303 306 306 304 302 300 298 298 297 298 298 298 299 299 299 299 299
295 295 295 295 296 295 297 297 295 294 294 295 295 296 298 303 307 308 304 300 300 300 299 299 300 299 299 299 298 298 300 299 299 300 300 300 298 297 299 299 297 300 302 301 301 302 301 301 301 301 299 298 298 298 299 301 301 302 303 303 304 306 307 305 307 307 304 303 302 300 301 304 307 307 304 301 299 298 298 297 297 298 298 298 299 299 299 299
295 295 295 295 296 295 295 295 294 294 295 296 296 297 303 308 307 305 302 300 301 300 299 299 300 300 299 299 298 298 299 299 299 300 300 300 299 297 297 297 296 299 302 300 299 301 302 301 300 301 300 299 298 298 298 300 301 301 302 302 303 303 303 302 303 303 302 302 302 300 302 306 307 307 304 301 300 298 297 297 297 298 298 298 299 299 299 298
295 295 295 295 296 295 295 295 295 295 295 296 297 300 305 308 306 303 301 300 300 299 299 299 299 299 299 298 298 298 299 299 299 299 300 300 299 298 297 296 296 298 300 299 298 299 301 301 300 300 300 299 298 297 297 299 300 301 301 302 303 302 301 301 301 301 302 303 301 300 302 305 306 305 304 301 300 299 297 298 298 298 298 298 298 298 298 298
295 295 295 296 296 295 295 295 295 296 295 296 300 304 306 306 304 301 298 298 298 298 299 299 299 299 298 297 298 298 299 299 299 299 300 300 299 299 297 297 296 296 297 298 298 298 300 301 300 299 299 299 298 297 297 298 299 301 301 301 303 302 301 301 300 300 302 302 300 301 302 303 303 305 304 301 300 299 298 297 297 298 298 298 298 298 298 298
295 295 296 296 296 296 295 296 296 296 296 298 303 307 306 303 301 300 299 299 299 299 300 299 299 300 299 298 298 298 299 299 299 299 299 299 299 298 297 297 296 295 295 298 298 297 298 299 299 299 299 299 298 297 297 299 300 301 301 302 302 301 300 301 300 300 301 301 301 302 302 302 302 304 303 301 300 299 298 298 297 297 297 298 298 298 297 297
294 295 296 296 296 295 295 296 296 296 297 302 306 307 303 299 299 301 301 300 300 300 300 300 300 300 299 298 298 298 298 299 299 299 298 298 298 298 297 297 296 295 295 296 298 297 297 299 298 299 300 298 297 297 298 299 300 301 301 301 301 301 301 301 301 300 300 301 302 302 301 301 301 302 302 301 300 299 298 298 297 297 297 297 298 297 297 296
294 295 296 296 295 295 296 296 296 297 300 304 307 303 298 295 296 299 300 300 299 299 299 300 300 299 298 298 299 298 298 298 299 299 299 298 298 297 297 297 296 295 294 295 297 297 297 298 298 299 300 299 297 298 298 299 300 300 301 300 299 301 301 300 299 299 299 300 301 300 299 300 299 300 302 301 299 299 298 298 297 297 297 297 297 297 296 296
294 295 296 296 295 295 296 296 296 298 301 303 303 299 296 295 296 298 299 299 298 298 299 299 300 298 298 298 299 298 298 299 299 299 299 298 298 298 296 296 296 295 294 294 296 297 296 298 299 299 299 298 297 298 299 300 299 300 300 299 299 300 300 299 298 299 299 299 300 300 299 298 299 300 301 300 298 298 298 297 297 296 296 296 297 297 296 295
294 296 297 296 295 296 296 296 296 298 303 305 303 300 297 296 297 297 298 298 298 298 299 298 298 297 297 297 298 297 298 298 298 299 299 298 298 298 296 296 295 295 294 294 295 296 296 298 300 299 298 297 298 299 299 299 299 299 300 299 298 298 298 298 297 298 299 299 300 300 299 299 299 299 298 298 298 298 298 297 297 296 296 296 296 296 296 295
295 298 298 296 295 296 296 296 297 299 302 303 301 299 297 297 298 297 297 298 298 298 299 298 297 296 296 296 296 296 297 297 297 298 299 298 298 297 296 295 295 294 294 294 295 296 296 297 299 299 297 297 298 299 298 298 298 299 300 299 298 297 297 298 298 298 298 298 299 299 298 299 299 298 297 298 298 298 297 296 296 296 296 296 296 296 296 295
296 299 299 296 295 296 296 297 299 299 299 297 297 296 297 298 298 297 297 297 297 297 298 298 297 296 296 296 296 295 295 296 297 298 298 297 297 297 296 295 294 294 293 294 295 295 295 296 297 296 296 297 298 298 298 297 298 298 299 298 297 297 297 297 297 298 297 297 298 298 297 297 297 298 298 298 298 297 296 296 295 295 295 296 296 296 295 295
298 300 298 296 296 296 297 299 299 299 299 297 296 296 297 298 298 297 297 296 296 296 296 297 297 296 296 296 296 296 295 295 296 297 298 297 297 297 295 294 294 293 293 294 295 295 295 295 295 295 296 297 297 297 297 297 297 298 299 298 297 297 296 296 296 297 296 296 296 296 296 296 297 298 298 298 297 296 296 295 295 295 295 295 296 295 295 294
298 299 297 296 296 296 299 301 299 297 296 296 296 295 296 298 298 297 297 296 295 295 295 296 297 297 296 296 295 295 296 296 296 297 297 297 296 296 295 293 293 293 293 294 294 295 295 295 295 295 296 297 296 296 296 295 297 298 298 297 296 296 296 296 296 296 295 294 294 294 295 295 297 298 298 297 296 296 295 295 294 294 295 295 295 295 294 294
296 296 296 296 296 297 300 302 299 296 294 294 295 295 295 297 297 297 297 296 294 294 295 295 296 296 297 296 295 295 295 296 296 296 296 295 295 295 294 293 293 292 293 293 294 294 295 295 295 295 297 297 297 296 296 296 297 297 295 295 296 295 295 295 295 295 294 294 294 294 294 295 296 297 296 296 295 295 294 294 294 294 295 295 295 294 294 294
296 297 296 295 295 297 299 299 298 296 294 294 294 294 295 295 296 296 296 295 294 295 295 295 295 296 296 296 295 295 295 295 295 295 294 294 294 295 294 293 293 292 293 293 293 294 295 295 295 295 296 297 297 297 297 296 295 294 294 294 295 294 295 295 295 294 294 294 294 294 294 294 295 296 295 295 294 294 294 294 294 294 295 295 295 294 294 294
298 299 298 296 295 295 296 296 296 295 294 294 295 294 294 295 295 294 294 295 295 295 296 296 296 296 295 295 294 294 294 294 294 293 293 293 293 293 293 293 293 293 293 293 293 293 294 294 294 294 295 295 296 295 295 294 293 293 293 293 293 294 294 294 295 294 294 294 294 294 294 294 294 294 294 294 294 293 294 294 294 295 295 294 294 294 293 293
299 300 298 298 297 295 294 294 295 295 294 295 295 294 294 295 294 293 293 295 295 295 295 296 295 295 295 294 293 293 293 293 293 293 293 293 293 293 293 293 293 293 293 293 293 293 293 293 293 294 294 293 293 293 293 293 292 292 292 292 292 293 293 294 294 293 293 294 293 293 293 293 293 293 293 293 293 293 294 294 294 294 294 293 293 293 293 292
299 298 294 296 298 298 296 295 294 293 294 294 294 293 294 294 293 293 293 294 295 295 295 295 295 295 296 295 294 293 293 293 293 293 293 293 293 293 293 293 292 292 293 292 292 292 292 292 292 292 293 292 292 292 292 292 292 292 292 292 292 292 292 293 293 293 293 293 293 293 293 293 293 293 293 293 293 294 294 294 293 293 293 292 292 292 292 292
296 295 293 294 296 295 294 294 293 292 294 294 293 293 294 293 293 293 293 293 294 294 295 296 296 295 296 295 294 293 293 294 294 293 293 293 293 293 293 293 293 292 292 291 291 291 291 292 292 291 291 292 291 291 292 291 291 291 291 292 292 292 292 292 292 292 292 293 292 292 292 292 293 293 293 293 294 293 293 293 293 292 292 292 292 292 292 291
295 295 294 293 293 292 292 292 293 293 294 295 294 294 294 294 294 294 294 294 294 294 294 295 295 296 295 294 293 293 293 294 294 294 294 294 293 293 294 294 293 292 292 292 292 291 291 292 292 291 291 291 291 291 291 291 291 291 291 291 291 291 291 291 291 291 292 292 292 292 292 292 293 293 293 293 293 293 292 292 292 292 292 291 291 291 291 291
296 295 294 294 294 292 292 293 294 295 295 295 295 295 294 294 295 294 294 294 294 294 294 294 295 295 295 294 293 293 294 294 294 294 294 294 294 293 294 294 293 293 292 293 293 292 291 291 291 291 291 291 291 291 292 292 292 291 290 290 290 290 291 291 292 292 292 292 292 292 292 292 293 293 293 293 293 292 292 292 291 291 291 291 291 291 291 290
294 294 294 296 295 293 293 293 294 296 296 295 295 294 294 294 294 294 294 294 294 294 294 294 294 295 294 294 294 294 294 294 294 293 293 293 293 293 293 293 293 293 293 293 293 293 292 292 291 291 291 291 291 291 292 291 291 291 292 293 293 292 292 292 292 293 293 293 292 292 292 292 292 292 292 292 292 291 291 291 291 291 290 290 290 290 290 290
Wind_Speed
15 15 15 15 16 16 15 12 11 11 12 13 15 16 16 17 17 18 18 19 20 20 21 21 21 22 20 18 10 9 23 28 29 36 38 33 27 26 24 24 24 25 24 23 27 27 26 24 23 20 17 12 3 5 4 5 4 4 2 2 4 3 2 3 3 5 5 6 10 13 18 13 10 17 15 9 7 6 7 6 5 3 5 5 6 7 10 12
15 15 15 16 16 16 16 13 12 12 12 13 14 15 16 16 16 17 18 18 19 19 20 21 20 20 19 19 11 6 16 25 30 35 34 29 27 28 25 25 24 23 23 25 28 27 25 26 25 22 17 13 5 3 2 3 5 5 2 3 4 2 2 8 8 9 9 8 10 12 17 13 12 16 13 10 11 13 8 3 8 9 12 11 11 12 14 13
16 16 16 16 16 16 16 15 13 12 12 13 13 15 15 15 16 16 17 17 18 19 19 21 19 18 19 18 9 5 8 16 30 33 30 29 28 28 27 25 24 22 23 24 24 22 21 22 21 19 14 12 7 2 2 1 3 6 3 4 2 2 4 12 13 12 13 12 10 11 15 13 15 16 12 10 11 12 6 10 17 16 16 15 13 14 15 13
16 15 16 16 17 17 17 16 14 12 12 13 13 14 15 15 16 16 17 17 17 18 18 20 19 15 18 19 10 4 2 7 23 31 28 29 27 27 26 25 24 22 22 21 21 19 19 18 18 15 10 9 5 3 5 5 3 5 2 5 1 7 4 11 15 14 16 16 12 12 12 11 15 14 13 13 9 6 5 15 19 18 20 19 17 16 15 12
14 14 15 16 16 17 17 16 15 13 12 12 13 14 15 15 16 16 17 17 17 17 19 20 20 14 15 22 19 9 2 1 17 29 27 27 27 27 25 25 24 21 21 20 20 20 19 19 18 14 10 8 6 5 7 12 9 7 4 10 6 9 5 10 15 14 17 17 14 12 9 11 13 11 12 12 6 5 12 19 21 22 21 19 19 18 14 13
13 13 14 15 15 16 16 16 14 12 11 12 13 14 14 15 15 16 16 17 17 17 19 20 18 14 12 21 26 23 14 4 17 27 25 26 27 27 26 27 23 19 20 18 20 22 20 20 18 15 11 7 9 8 10 15 11 4 4 12 10 10 7 12 15 13 16 17 15 13 13 15 13 10 12 11 8 12 19 23 22 20 18 16 15 15 14 14
12 13 14 14 15 16 16 16 14 12 11 12 13 13 14 15 15 16 16 17 17 17 19 19 16 12 11 15 21 31 28 14 20 25 24 26 25 26 27 27 22 19 20 18 22 22 19 20 18 16 11 6 11 11 12 15 11 4 4 9 13 13 11 13 17 15 14 14 15 16 17 15 12 10 11 12 14 18 20 20 18 16 15 15 15 15 15 14
12 12 13 14 14 15 16 15 14 12 11 12 13 14 14 15 15 15 15 16 17 17 18 19 17 15 15 11 11 25 31 22 23 24 23 24 23 25 27 25 21 20 20 18 21 20 17 18 18 16 9 7 12 11 13 13 7 5 6 12 15 14 14 15 16 15 12 12 13 14 13 12 13 12 12 14 16 15 12 10 13 17 16 15 15 15 15 14
11 12 12 13 14 15 16 15 14 12 11 12 13 14 14 15 15 15 15 15 16 16 16 20 22 23 22 17 13 19 24 22 23 24 23 22 22 25 25 23 22 20 19 18 19 18 16 15 15 13 7 9 13 11 12 7 5 10 11 14 15 15 16 14 13 12 11 11 10 9 8 10 12 10 9 10 8 7 5 7 11 16 15 14 14 14 15 15
11 11 12 13 14 15 15 15 13 12 12 12 13 14 14 14 15 14 14 14 14 14 15 20 25 30 29 29 26 17 18 23 24 24 21 20 22 24 24 22 22 21 20 18 19 18 16 13 13 13 7 9 13 10 8 6 7 12 12 13 13 14 14 12 11 9 9 8 7 6 6 10 12 6 6 5 9 9 6 8 11 13 13 12 14 14 14 14
10 11 11 12 13 14 15 15 14 12 12 13 14 14 14 14 14 15 16 13 13 15 16 20 24 28 30 37 33 17 20 25 23 23 20 20 22 22 22 22 22 22 20 18 18 19 16 12 13 14 6 7 14 10 5 7 9 11 11 10 10 12 11 10 6 7 9 7 12 10 8 12 14 7 6 4 12 12 7 8 9 10 11 11 12 12 12 13
11 11 11 12 13 14 15 15 14 12 12 14 14 14 14 13 14 16 16 14 14 15 17 21 24 22 25 35 32 20 23 24 22 22 21 20 19 17 19 22 22 21 20 19 19 19 18 14 14 12 6 7 11 6 5 8 10 11 9 5 7 7 4 4 7 12 10 8 17 14 9 10 9 2 6 8 12 10 9 8 8 10 9 10 11 10 12 14
11 10 11 12 13 14 14 14 13 12 13 14 14 15 14 12 14 15 14 16 15 13 13 17 20 22 24 26 24 24 25 24 23 21 21 20 16 14 18 20 20 21 21 20 20 19 20 18 15 11 9 10 11 7 9 12 11 12 7 1 5 3 4 9 11 13 9 11 22 14 5 3 5 11 14 13 12 11 10 9 9 10 9 10 9 8 13 18
10 10 11 11 12 13 14 14 13 12 12 14 15 16 14 13 16 17 14 13 13 13 14 13 12 16 21 18 20 27 27 24 23 23 23 22 17 15 19 19 17 20 21 20 20 21 21 20 17 13 10 13 17 12 9 6 5 9 7 2 3 3 5 7 10 11 9 13 24 14 2 2 8 12 14 13 12 13 12 11 10 11 11 11 10 13 18 21
10 10 11 11 12 13 13 13 11 11 13 14 16 18 17 13 15 19 19 15 12 10 12 15 13 12 14 14 19 27 27 25 27 27 23 21 19 17 19 19 16 16 20 21 20 22 22 19 17 15 16 21 22 12 3 6 8 9 7 4 5 5 5 7 9 14 10 11 19 11 3 3 3 9 16 14 14 15 13 13 13 14 15 18 21 23 23 24
10 11 11 11 12 12 13 12 10 10 12 15 19 23 23 17 11 11 13 16 18 14 11 13 15 14 10 10 19 28 30 29 30 28 21 17 18 20 20 20 17 14 16 22 19 18 21 18 14 16 19 21 17 9 6 7 7 7 6 5 7 7 5 6 7 14 14 9 11 8 4 5 5 12 19 16 14 14 12 13 15 19 24 27 27 26 25 26
10 11 12 11 12 12 12 11 9 8 11 14 19 25 27 25 17 9 6 8 14 18 19 14 8 10 11 16 22 27 31 30 31 30 22 15 16 21 21 19 20 16 11 19 21 16 19 20 14 12 14 12 8 7 5 7 7 5 5 4 6 8 6 6 8 13 16 10 8 6 4 6 8 12 18 17 14 13 11 14 21 27 29 28 27 27 27 28
11 11 12 12 12 12 11 10 8 7 7 8 10 14 19 24 24 23 17 12 13 15 19 20 11 5 7 21 25 23 26 28 31 32 23 13 16 21 20 16 17 18 9 12 22 20 17 18 14 7 8 9 8 8 7 7 7 6 6 5 6 7 7 8 8 10 14 11 8 6 4 6 9 11 16 18 17 18 20 24 28 29 28 28 28 28 28 28
11 11 12 12 12 12 11 10 9 7 5 4 3 4 8 13 19 28 32 30 27 16 9 18 17 5 4 17 23 21 20 24 28 30 24 16 17 19 18 14 15 18 12 7 15 21 15 11 11 8 8 10 10 10 8 6 7 9 8 6 6 6 6 8 8 9 12 9 7 6 5 5 7 8 10 21 30 30 30 30 28 27 28 29 29 29 29 29
10 11 12 12 13 13 12 11 11 9 6 4 2 1 4 6 7 16 30 35 32 20 11 15 16 9 7 13 21 22 19 21 25 29 27 20 16 16 19 19 16 16 14 6 6 16 16 9 9 11 10 12 12 13 13 8 7 9 8 7 7 6 6 9 8 9 12 7 6 7 7 6 5 6 14 28 34 29 28 27 27 27 27 28 28 29 29 28
10 11 11 12 12 13 14 14 13 11 8 6 5 5 7 7 3 4 15 23 23 19 17 17 15 13 12 12 17 21 18 18 25 30 28 21 17 14 17 18 12 10 13 14 8 9 13 11 10 13 13 12 12 13 14 10 7 8 7 6 6 6 7 9 7 10 11 6 5 5 6 8 10 15 19 27 25 21 24 25 25 27 25 26 27 27 27 27
9 10 10 11 11 12 14 15 14 13 11 8 8 12 14 12 10 8 7 10 16 18 15 16 18 19 18 14 14 17 17 17 23 33 30 24 20 13 14 14 8 6 10 13 9 6 9 10 12 15 14 11 10 13 15 13 8 7 7 5 5 7 7 7 7 11 10 4 3 4 3 9 16 16 18 23 19 18 25 25 24 25 24 24 26 26 27 28
9 10 10 10 11 11 13 14 13 12 10 8 9 13 14 13 12 11 8 4 8 13 14 17 19 23 23 18 16 16 19 18 20 30 31 27 21 13 11 10 6 6 8 8 8 7 7 9 15 17 15 11 9 14 15 11 7 6 6 6 5 8 7 5 8 13 11 6 6 7 5 9 12 11 14 18 19 21 23 23 23 24 23 23 24 26 27 29
8 9 9 10 10 11 12 12 12 13 12 8 8 10 9 9 10 9 7 3 4 7 12 15 16 22 24 20 19 14 12 16 18 24 29 28 24 14 9 9 6 6 7 8 9 9 7 10 17 16 12 11 9 11 13 9 5 4 8 7 6 9 7 5 8 12 9 5 6 9 7 6 7 8 9 10 16 18 19 22 22 23 23 22 24 26 27 28
8 8 8 9 9 10 10 11 13 13 12 9 8 6 5 5 7 5 4 2 2 5 9 12 13 19 22 21 22 10 2 13 18 21 25 25 22 13 8 9 6 5 7 8 6 6 7 13 17 13 10 11 8 8 11 8 5 4 7 8 8 10 10 7 8 10 5 1 5 6 4 1 3 6 6 5 9 11 14 19 19 21 23 23 24 25 26 27
7 7 8 8 8 8 8 11 13 11 10 10 8 4 2 3 6 3 2 2 1 5 6 10 9 14 20 21 23 7 4 9 14 18 24 22 19 11 8 10 6 6 7 4 2 2 6 12 14 11 10 11 8 7 10 9 5 4 6 9 9 10 10 8 8 7 3 2 5 5 3 1 1 4 4 4 6 7 10 13 15 19 21 22 23 24 26 27
7 7 7 7 7 8 8 10 10 9 9 9 8 4 1 0 6 5 1 2 2 4 5 9 7 12 16 17 22 8 3 11 11 15 25 22 18 10 5 8 5 7 8 2 1 2 5 10 10 9 9 8 7 7 10 10 5 3 8 12 11 10 8 6 6 6 3 3 4 5 6 0 1 2 2 4 6 6 8 9 12 17 20 21 22 23 25 26
7 6 6 7 7 8 8 8 9 9 9 8 7 5 2 2 6 4 2 2 3 4 3 6 5 12 15 12 19 13 3 11 9 12 22 20 18 9 4 8 6 8 10 4 2 3 5 7 7 8 9 6 6 8 11 10 4 4 12 14 12 9 6 4 4 5 3 4 3 7 7 2 0 1 1 2 4 6 8 8 10 15 18 20 21 23 25 25
7 6 6 6 7 7 7 8 9 9 8 8 7 5 3 4 6 2 2 1 2 3 3 6 6 12 18 10 14 16 9 11 10 12 17 18 19 8 2 8 11 9 7 6 3 2 4 4 5 6 6 6 8 11 11 7 5 11 15 13 10 7 5 4 4 4 3 3 3 7 7 3 1 1 2 3 3 4 6 5 8 14 17 19 20 21 23 24
6 6 7 7 7 8 7 8 10 10 8 8 6 4 4 5 3 2 3 1 1 3 3 7 6 10 16 8 7 14 11 10 13 14 13 15 21 17 3 5 14 8 1 6 5 3 4 3 3 4 6 8 10 12 11 8 10 16 14 9 6 4 4 2 4 4 1 1 3 7 8 4 1 1 2 1 1 3 4 4 6 12 16 18 19 20 21 23
6 6 6 7 7 9 8 8 10 10 9 9 6 3 3 3 1 2 2 1 1 3 3 5 7 8 11 6 4 11 9 8 15 13 9 8 14 22 13 5 11 7 1 5 7 5 4 3 3 4 10 15 10 8 12 12 13 13 8 6 4 1 1 1 2 2 1 1 3 8 9 4 1 2 2 1 2 4 4 5 6 9 14 17 18 18 20 21
5 6 6 7 8 8 8 8 10 10 10 10 6 3 1 1 2 1 1 1 2 3 2 1 6 7 7 5 5 8 6 6 14 12 7 7 7 13 13 6 7 5 3 5 6 7 3 3 4 3 7 17 10 5 8 8 9 9 6 6 5 3 3 2 3 3 1 2 4 8 9 3 2 1 3 4 4 3 4 8 7 10 14 16 17 18 19 20
5 5 5 6 7 8 9 9 10 11 10 10 6 3 2 0 1 0 0 2 1 1 1 2 4 5 5 5 5 7 4 3 11 11 8 7 6 7 10 9 8 3 2 3 5 6 1 3 7 3 2 13 10 4 5 5 7 7 6 6 4 2 4 3 3 3 2 3 7 10 6 0 3 1 5 6 5 2 7 12 11 12 14 15 16 16 18 19
4 5 5 6 6 7 9 9 11 11 11 10 5 2 3 2 1 1 0 2 0 2 1 1 3 3 3 3 3 4 3 3 7 9 7 5 4 4 6 9 12 6 2 2 2 4 2 1 5 4 3 8 8 4 4 5 5 5 4 4 3 3 3 1 2 3 3 4 8 9 3 0 3 2 6 8 9 4 7 13 13 13 12 14 15 16 18 20
3 4 4 5 7 8 9 10 10 11 11 9 4 1 3 2 1 1 1 1 0 1 1 1 3 2 1 2 1 2 2 3 6 6 5 5 4 4 4 5 10 8 3 2 1 2 2 3 2 7 4 4 7 6 6 5 3 4 3 4 2 2 1 2 3 4 4 4 5 4 1 2 2 2 7 8 9 5 5 11 16 16 14 13 14 16 18 20
2 3 5 6 7 8 8 8 9 9 9 7 3 1 2 1 0 2 1 1 1 1 3 2 2 2 2 1 1 3 2 2 5 4 3 4 3 4 3 3 8 9 5 3 2 2 3 3 4 9 4 4 8 6 5 4 1 2 3 2 1 2 3 1 4 4 3 3 3 1 2 3 1 1 5 7 6 3 4 10 16 18 17 15 14 15 18 20
2 3 5 6 6 7 6 7 7 6 7 6 3 2 1 0 2 2 2 2 1 2 3 1 1 2 2 1 1 4 5 3 4 3 1 1 2 3 3 4 7 9 7 4 1 2 2 5 5 5 2 7 13 6 4 5 3 0 2 2 2 2 4 1 2 3 2 3 3 2 3 4 3 2 3 5 2 2 3 8 14 15 16 15 15 16 17 20
2 2 4 5 6 6 6 6 5 4 6 5 4 3 1 0 3 3 4 3 1 2 2 1 2 1 0 1 1 3 5 3 3 4 1 0 1 1 1 3 7 8 10 8 2 0 2 4 3 1 2 11 14 4 3 6 3 0 2 3 3 2 1 2 1 1 2 3 4 3 4 4 4 1 1 2 3 5 5 8 11 12 14 15 17 17 18 20
2 2 3 5 6 5 5 4 3 3 4 3 3 3 1 1 2 3 4 3 2 2 1 1 1 1 1 1 1 2 3 3 3 2 1 1 1 1 2 1 3 7 11 10 2 1 2 1 2 1 6 11 8 2 1 3 2 2 2 4 2 1 1 1 0 1 2 2 4 4 4 2 2 1 4 6 5 6 8 8 9 13 15 16 18 17 18 21
2 2 2 5 5 5 4 3 4 5 4 2 3 2 1 3 4 3 3 2 2 2 1 1 1 1 1 1 1 1 2 2 2 2 1 0 1 2 4 3 2 5 11 10 3 1 2 1 2 5 8 8 3 2 2 2 2 4 3 3 3 2 0 1 1 1 1 1 2 3 4 4 1 4 6 6 6 7 9 9 10 15 18 18 18 18 18 20
3 1 2 4 4 3 3 5 7 7 3 2 3 2 1 3 6 5 3 3 3 2 2 2 1 1 1 0 0 1 2 2 2 1 1 1 1 1 3 3 4 5 7 7 2 1 1 0 2 6 6 4 3 1 2 0 1 2 2 2 2 2 2 2 3 1 1 1 2 3 7 7 2 4 5 3 5 9 13 14 14 19 22 22 21 18 17 20
3 1 2 4 3 1 4 6 7 5 3 2 3 3 3 4 6 5 3 3 3 2 2 2 1 3 1 0 2 2 1 2 2 1 0 1 1 1 3 4 4 6 5 4 2 3 2 1 3 5 5 7 7 3 6 3 3 2 2 2 2 2 3 1 3 2 2 3 2 3 6 5 2 3 3 4 10 16 20 20 19 22 25 25 22 20 20 22
2 2 2 3 1 4 5 5 4 4 4 3 4 5 4 3 4 4 3 3 2 1 1 1 1 1 2 2 2 1 1 1 1 1 2 2 2 4 5 4 3 5 4 2 1 3 1 1 2 4 6 5 4 4 6 5 4 3 1 1 2 2 2 2 3 1 1 4 3 3 6 4 3 4 5 13 21 23 22 23 24 25 26 24 22 22 24 25
3 4 5 5 0 4 3 3 2 3 3 3 4 4 3 2 2 2 3 3 2 2 1 1 0 1 3 3 3 3 3 1 0 1 1 2 2 4 3 2 3 4 3 2 2 3 1 1 0 3 4 3 3 3 3 3 3 2 2 3 3 3 2 2 2 1 1 6 6 5 7 4 3 7 13 19 23 21 22 26 27 26 25 24 24 26 27 28
2 3 6 8 2 4 3 4 4 4 3 3 3 2 1 2 1 1 3 3 3 2 1 3 3 1 2 3 2 1 1 1 1 1 2 1 1 0 1 2 1 3 5 5 4 2 2 1 0 2 2 2 3 2 0 2 3 2 3 4 5 5 4 3 2 2 3 5 6 6 8 8 7 10 13 15 15 17 23 28 28 26 25 25 27 29 29 29
1 1 2 6 6 7 8 7 7 7 5 4 3 2 2 1 1 2 3 2 3 2 0 2 3 2 2 2 1 1 1 2 2 1 2 1 2 1 1 3 5 6 5 4 3 2 1 2 3 4 5 5 5 5 5 6 6 6 6 7 8 8 7 4 2 5 6 5 6 8 11 14 13 12 12 13 14 16 21 25 25 23 24 27 30 30 29 29
0 1 0 2 4 8 9 8 7 8 5 4 3 2 4 3 2 3 2 0 3 4 1 1 3 2 2 3 1 2 3 3 3 2 2 3 2 2 4 7 6 2 2 2 3 2 1 2 4 7 9 8 8 10 11 9 9 10 10 10 10 9 9 6 6 8 7 7 9 10 11 14 14 12 12 14 15 16 18 21 22 24 28 31 32 31 30 30
1 1 3 2 1 2 3 3 5 8 6 3 2 3 5 5 3 3 2 1 3 4 2 2 4 4 3 2 1 1 2 2 2 2 2 2 2 2 3 2 2 4 4 2 1 0 1 3 5 6 8 9 9 10 11 10 10 12 11 11 12 11 10 9 10 12 9 8 12 13 14 16 16 14 14 16 17 16 19 25 28 30 31 32 32 31 32 33
2 3 4 4 2 3 4 4 7 9 7 4 2 3 4 5 5 4 4 3 2 4 5 3 4 6 5 3 2 1 2 1 1 2 1 2 3 2 2 1 4 6 5 3 1 1 1 3 3 3 6 9 9 10 12 11 12 14 13 13 12 12 11 11 12 13 13 14 16 17 18 18 15 14 14 17 20 23 27 30 29 29 31 32 32 33 34 36
3 2 4 5 5 7 7 7 7 6 3 2 1 3 4 4 5 5 5 5 2 3 6 4 3 6 6 4 2 3 3 2 3 3 2 2 2 1 1 0 2 5 5 3 3 4 4 2 4 4 5 7 8 9 10 10 11 14 15 15 14 12 12 12 12 12 12 14 15 15 17 14 11 12 16 21 25 26 25 24 24 27 31 33 34 36 37 38
4 4 5 6 5 4 6 5 3 2 2 2 2 3 3 4 6 6 5 6 5 1 5 7 6 4 6 5 5 6 7 6 6 7 6 5 5 4 3 3 1 1 3 3 2 4 3 2 3 3 5 5 5 6 7 5 8 14 17 18 15 10 7 7 8 8 9 11 12 11 11 8 7 13 19 21 23 22 20 21 24 28 33 36 37 39 41 43
5 5 8 6 3 3 4 3 2 2 1 3 4 5 4 4 7 8 3 5 7 4 4 8 7 3 4 5 5 6 8 7 6 9 10 10 10 11 12 12 11 8 4 3 1 3 3 2 2 3 4 3 2 4 4 2 6 10 10 10 9 6 5 5 6 7 8 7 8 8 7 7 10 13 14 14 17 19 20 23 26 30 35 39 40 42 44 44
Wind_Direction
37 38 37 36 39 44 48 51 52 48 46 45 44 42 42 41 39 37 35 33 31 29 27 25 22 24 22 16 25 33 33 33 22 26 29 19 11 9 7 2 5 7 1 9 9 358 355 354 353 352 346 341 265 219 225 208 200 208 210 214 235 241 257 355 33 12 351 4 1 357 6 5 3 15 13 345 332 325 291 274 293 339 64 59 42 21 4 5
36 37 35 34 37 41 45 48 48 46 45 45 43 41 41 40 38 36 34 31 28 28 28 26 25 24 20 16 24 38 31 26 22 25 21 14 14 13 8 6 9 7 8 14 3 351 347 342 342 343 339 338 305 214 218 202 197 216 228 223 226 258 11 36 35 22 14 358 350 354 355 353 15 14 359 349 347 342 320 327 359 25 60 47 35 24 13 11
34 35 32 32 33 37 42 43 44 45 44 44 42 41 41 40 39 35 32 29 26 27 28 26 26 27 24 18 19 48 43 27 20 15 11 12 12 11 8 6 8 10 17 11 353 346 344 337 336 334 329 322 297 267 326 100 181 230 237 228 206 26 25 42 26 11 11 351 349 357 342 342 11 6 351 355 342 329 338 29 11 7 21 16 19 15 7 7
34 32 30 30 30 33 35 37 40 41 42 42 39 40 41 40 38 34 31 28 27 27 26 27 25 30 35 30 30 58 91 42 17 4 4 9 7 10 7 6 8 12 20 7 350 350 349 346 343 338 329 317 316 350 346 48 26 291 266 243 28 40 4 35 21 1 359 346 345 348 337 348 3 356 346 352 346 315 338 15 3 345 349 348 347 347 347 350
35 32 29 28 28 29 31 33 35 37 41 39 37 38 39 38 35 32 31 28 29 27 25 26 22 29 44 41 45 58 104 69 6 1 4 5 3 6 6 11 8 11 20 5 356 358 358 359 358 1 350 329 353 1 5 25 0 324 325 282 318 41 355 2 10 358 353 340 337 341 342 347 345 345 345 341 333 309 324 344 344 333 333 335 334 332 335 342
37 32 29 28 27 28 30 31 32 35 39 37 36 36 36 35 31 30 30 30 30 27 25 23 22 31 46 45 46 56 71 60 359 0 4 3 2 3 9 15 8 16 23 3 3 5 3 7 8 9 345 342 24 12 5 6 347 315 311 292 319 33 5 343 355 354 351 338 329 329 327 331 332 337 341 332 319 317 318 323 331 334 336 339 342 342 347 349
38 32 28 26 26 28 29 30 30 33 38 38 35 34 33 29 28 27 30 34 31 28 26 24 31 44 53 47 42 50 57 39 8 5 4 3 1 4 12 13 8 24 25 6 10 6 4 11 9 4 345 10 23 1 358 351 335 304 303 326 344 13 2 342 345 341 341 329 318 318 316 322 328 329 333 327 315 311 311 316 330 340 341 344 345 346 349 351
40 34 28 24 25 28 30 29 29 34 38 38 34 32 28 24 25 26 31 34 31 32 32 36 49 60 64 59 43 46 42 21 9 8 5 4 2 9 12 11 14 27 27 13 10 6 9 14 7 6 359 14 8 352 355 348 355 9 342 342 343 348 344 337 333 325 327 318 310 313 309 312 312 312 314 305 304 310 316 323 336 342 343 345 342 344 352 356
41 35 28 24 25 27 30 29 31 37 38 36 34 30 24 22 23 25 32 30 31 39 43 52 57 57 61 59 58 52 31 12 7 7 7 3 5 13 10 12 21 27 29 18 11 13 14 9 5 5 347 349 358 349 345 341 28 20 348 337 335 329 325 323 316 308 311 304 302 304 302 309 307 314 302 284 314 340 347 350 346 352 354 356 358 0 3 3
41 36 29 24 24 26 29 30 34 39 39 36 31 27 21 20 24 27 28 25 36 50 52 58 55 51 53 50 55 55 22 13 9 9 10 7 13 16 12 20 26 27 30 21 19 26 18 9 1 351 328 332 341 332 339 338 348 349 331 325 319 304 301 294 286 303 314 314 340 335 324 316 301 307 268 270 17 15 347 344 347 1 5 4 8 8 7 6
41 37 31 25 23 24 27 30 36 41 40 35 30 28 23 22 29 27 25 35 59 66 60 59 54 49 45 45 52 44 18 16 7 10 17 17 18 11 13 26 26 27 33 29 31 33 28 28 11 354 338 330 327 318 353 356 327 318 310 311 302 284 282 272 269 346 348 9 19 350 316 293 271 260 245 286 20 20 1 350 350 10 13 6 8 11 12 8
43 39 33 27 24 23 25 29 37 44 41 36 32 29 25 29 37 32 36 61 78 72 65 61 55 49 42 44 46 30 22 20 8 16 25 25 22 13 23 30 27 32 37 36 37 32 26 23 12 3 349 332 335 332 358 342 303 286 284 289 293 279 301 359 37 16 351 20 11 341 300 273 242 124 63 49 31 26 22 14 5 8 10 7 9 11 13 18
45 42 36 29 26 22 23 29 38 48 44 39 35 30 31 42 48 45 58 76 75 70 67 62 57 50 46 47 39 29 32 25 15 24 32 35 35 34 41 36 30 37 40 38 34 28 22 13 357 340 329 330 335 316 295 300 287 286 290 236 296 288 73 51 48 15 353 24 4 340 308 323 116 86 66 53 30 26 22 12 6 2 5 2 359 12 25 33
48 45 40 33 29 23 23 29 40 53 50 42 39 36 40 57 62 62 73 78 69 65 60 59 61 48 48 51 36 32 36 32 27 30 32 37 43 50 52 41 28 31 34 31 25 22 20 15 5 347 346 351 343 319 280 296 339 336 335 54 351 2 58 46 66 37 8 14 357 339 290 28 95 78 56 49 26 16 6 359 1 352 350 352 8 35 38 34
52 49 44 39 32 25 24 30 43 61 60 52 50 48 48 64 76 73 73 67 58 65 65 64 71 62 51 45 31 32 37 36 32 29 26 28 35 42 43 35 23 23 28 21 13 16 15 14 16 12 11 12 5 0 32 38 29 9 357 26 8 2 17 10 66 60 29 2 355 345 296 323 53 27 19 26 14 3 357 353 352 352 7 24 37 42 35 29
54 51 49 45 37 30 27 30 44 70 76 69 65 59 53 57 70 74 67 58 58 64 67 63 63 67 59 29 23 27 29 27 25 26 25 21 28 33 30 27 22 21 28 22 13 13 16 12 16 22 17 17 18 17 41 39 23 19 11 13 7 352 355 355 23 42 31 7 353 347 320 311 321 352 0 5 359 349 342 347 6 27 37 41 41 39 33 29
50 52 51 48 43 37 30 31 45 80 97 89 75 65 58 55 54 59 50 55 66 59 53 50 51 75 62 27 18 14 14 20 21 21 22 22 31 32 22 16 16 12 24 31 26 25 26 23 20 24 21 21 23 12 35 41 14 16 12 359 12 354 348 3 355 14 21 6 344 335 308 306 323 347 351 348 344 341 349 17 39 46 43 39 37 34 32 28
44 47 49 49 49 43 37 35 44 78 112 111 84 64 57 54 52 57 61 68 71 54 44 38 35 96 43 10 7 1 7 20 19 15 17 28 43 34 13 5 10 9 17 31 28 30 31 30 28 23 22 25 24 17 36 38 360 358 5 350 11 3 357 5 348 3 16 360 336 323 309 334 340 338 340 355 20 32 38 45 47 44 39 36 32 30 27 24
39 41 44 48 48 46 45 43 48 65 97 122 100 59 57 52 48 51 52 56 58 56 36 27 32 68 326 348 2 5 14 23 16 14 20 29 44 39 24 24 21 15 21 23 27 29 25 29 32 24 19 20 20 13 9 21 10 360 0 357 1 3 4 355 340 2 14 356 328 332 350 339 323 322 356 34 48 49 46 45 42 39 37 33 29 26 24 22
37 38 40 44 45 44 43 46 51 54 67 86 62 66 62 37 36 42 43 51 59 66 64 40 38 37 350 348 6 13 26 32 19 17 24 26 38 40 29 30 26 22 23 11 32 29 22 30 32 18 8 9 19 8 350 359 30 16 5 3 1 7 2 337 332 4 10 351 316 336 352 321 331 30 47 51 50 46 43 42 39 36 34 30 26 24 22 19
36 37 36 41 44 42 39 40 43 48 58 63 48 73 79 55 63 48 43 53 59 61 58 47 40 28 11 1 11 17 20 22 18 21 26 28 41 44 22 19 24 27 18 12 24 25 25 35 23 8 357 2 21 10 352 358 30 33 13 1 4 10 345 320 330 359 353 329 305 335 347 353 41 57 52 52 50 44 42 39 35 32 31 29 24 21 19 17
35 35 34 38 42 44 43 37 35 43 51 54 70 89 96 94 99 100 84 70 54 50 47 41 35 26 22 19 22 25 14 5 11 18 21 26 41 42 9 12 29 31 18 17 24 17 29 33 9 359 353 0 24 16 1 358 17 41 20 6 10 360 334 317 336 346 335 316 324 333 2 41 53 56 50 51 51 47 45 42 38 32 28 26 23 19 16 14
32 33 32 34 38 42 45 41 39 50 56 62 89 99 104 107 109 104 96 96 60 45 34 33 29 19 21 20 17 24 22 15 4 5 11 16 24 23 1 8 28 28 18 20 34 30 31 20 357 352 355 6 27 22 10 359 14 53 32 14 1 355 350 325 325 332 322 303 339 358 56 59 43 43 48 47 47 47 44 43 41 36 30 26 23 20 17 15
28 31 32 30 36 39 42 43 42 55 61 67 91 105 116 112 114 107 78 88 97 41 22 28 25 16 16 13 13 19 24 23 8 359 5 6 7 12 5 1 12 29 13 11 42 53 37 7 353 351 2 12 22 26 19 5 356 32 40 27 353 343 339 310 313 324 311 281 349 19 61 52 15 31 39 33 44 45 38 37 36 32 30 26 24 22 19 17
27 30 31 30 37 39 43 41 38 51 57 63 80 92 127 135 138 118 60 103 89 12 7 18 17 11 10 8 9 11 34 26 15 2 3 6 4 0 354 357 10 27 4 1 38 66 33 5 356 358 8 10 15 23 19 11 339 349 31 19 348 329 319 324 328 324 325 355 360 14 69 67 358 38 24 4 41 40 33 36 31 26 25 24 24 21 19 17
29 29 28 31 36 37 47 42 35 44 49 51 61 72 127 167 180 177 24 151 30 354 354 1 360 4 6 4 4 3 165 21 13 7 8 10 6 352 344 357 14 20 358 346 26 64 22 5 2 6 6 7 13 9 5 6 345 327 0 353 336 318 315 338 337 318 356 7 321 351 49 173 192 49 12 354 36 33 31 37 30 26 23 19 20 18 18 16
33 31 26 30 33 35 50 46 34 41 44 39 43 57 60 184 188 195 38 118 15 354 353 353 352 3 3 5 12 40 172 341 348 13 12 9 6 7 9 359 5 5 347 302 22 39 17 5 5 7 8 11 9 356 343 346 347 319 334 332 318 310 314 330 317 300 335 326 301 1 21 29 118 52 323 342 25 23 23 31 27 25 22 18 17 17 17 16
32 33 26 26 28 33 47 48 35 37 40 32 37 51 38 95 160 171 70 103 2 348 357 354 353 9 9 14 25 44 40 345 348 6 10 12 9 14 46 18 356 327 344 16 64 47 32 12 4 3 12 15 355 336 324 332 342 309 319 315 300 294 291 291 289 284 324 356 349 1 9 20 240 273 269 355 27 18 16 24 19 19 21 18 16 15 15 14
28 29 26 22 22 22 33 41 31 23 24 24 31 42 69 125 151 140 37 151 347 0 360 360 353 359 4 13 28 30 28 22 12 352 7 24 21 20 178 12 358 317 346 51 73 48 42 20 10 9 17 8 338 320 320 342 345 315 311 300 281 259 245 255 268 276 328 21 4 355 5 10 257 298 356 12 31 7 5 16 13 15 21 19 16 16 13 12
27 23 21 17 17 16 14 22 17 6 8 13 18 42 110 136 142 60 35 233 340 12 345 7 8 346 353 3 24 14 13 23 10 1 19 32 29 34 68 343 355 337 7 50 22 21 49 25 22 44 26 358 333 326 339 359 344 325 314 302 285 232 213 235 245 260 317 26 14 3 353 340 286 290 317 3 54 311 335 8 10 14 21 20 17 15 13 10
32 22 16 11 13 16 15 11 2 356 1 3 4 36 122 144 80 91 89 252 304 358 343 6 8 349 355 16 22 357 354 5 4 9 26 27 30 34 37 360 353 355 58 24 357 355 44 48 33 69 31 4 344 340 352 352 347 341 327 336 352 313 272 292 300 347 12 279 1 2 345 327 266 265 242 186 231 270 341 18 6 9 17 17 15 13 12 10
31 22 14 10 8 9 11 7 358 356 359 358 4 33 94 114 35 119 154 292 277 360 26 340 354 350 345 11 20 350 335 352 2 8 17 21 36 39 44 32 352 359 18 7 352 350 36 77 33 89 41 13 0 344 352 343 347 354 345 360 16 8 8 356 339 4 324 283 341 351 352 334 259 277 153 172 232 260 32 37 16 14 18 14 12 10 8 8
27 20 17 13 7 4 4 1 359 360 357 357 8 35 36 65 39 257 327 359 275 308 13 283 330 347 337 357 6 345 335 353 3 3 5 29 57 64 64 43 11 18 350 333 347 354 20 84 29 49 27 14 15 7 354 337 338 345 352 13 27 27 18 348 331 340 288 300 322 328 348 340 273 274 159 172 207 223 47 45 28 21 21 13 8 7 6 6
28 22 22 16 10 6 2 360 1 359 354 357 4 20 32 72 148 278 6 47 260 249 294 288 297 332 19 31 357 342 12 36 13 4 359 25 52 50 55 34 20 22 321 320 7 4 342 302 19 27 344 358 15 9 320 300 310 310 334 28 41 52 44 320 325 328 290 302 310 310 322 294 298 237 171 170 187 185 52 43 29 21 20 14 7 5 6 3
36 35 31 19 15 12 4 1 0 358 356 360 359 341 34 101 177 23 70 100 154 254 308 306 281 296 69 62 3 12 32 18 9 8 10 24 41 30 20 17 16 13 356 2 2 344 322 242 346 8 357 1 9 347 319 317 299 288 351 41 46 72 94 263 268 255 266 303 300 284 285 351 345 172 161 166 185 177 55 34 25 14 6 11 10 5 4 1
46 57 42 25 18 14 6 1 359 4 7 10 17 12 35 99 262 24 7 296 73 359 318 301 310 353 34 4 3 28 29 352 344 352 40 38 49 55 43 32 18 16 28 20 325 350 338 260 320 347 350 44 16 339 314 338 307 284 2 7 261 151 134 248 281 266 272 295 283 284 329 345 28 179 174 176 188 159 55 26 24 9 355 1 6 3 2 358
44 64 45 26 17 10 5 3 4 18 26 31 54 64 84 61 342 1 7 359 54 342 321 345 22 8 6 335 15 5 352 339 338 350 57 57 42 46 49 68 43 24 23 9 341 80 357 280 306 337 315 350 355 341 283 304 303 314 32 333 312 87 102 126 278 307 319 289 281 311 330 321 317 306 183 189 202 81 38 17 18 2 351 357 358 359 0 354
38 69 43 18 14 9 6 10 17 39 43 56 89 98 136 2 359 16 25 23 11 318 334 68 44 20 282 292 18 1 347 345 344 352 23 85 26 15 22 60 44 22 5 353 333 101 356 295 291 80 24 329 337 356 273 291 301 288 52 23 17 72 22 320 276 301 301 284 285 307 341 318 283 304 87 283 339 25 12 8 4 350 353 360 355 352 351 348
32 80 35 8 7 7 10 21 49 67 55 78 112 112 132 129 55 42 26 8 341 332 6 106 88 45 33 342 337 3 16 9 337 330 19 66 12 34 82 43 17 15 356 342 318 276 343 322 253 30 11 330 322 36 352 317 332 319 7 35 30 168 232 283 305 200 233 281 293 305 336 296 230 40 356 330 360 20 3 359 349 341 351 357 351 345 344 342
53 89 11 359 3 13 26 57 77 70 62 67 92 113 146 143 120 87 44 30 21 351 359 100 168 166 66 38 324 354 20 353 323 306 312 71 45 50 78 64 0 7 347 325 292 265 327 106 236 313 350 340 314 67 20 346 353 337 2 38 6 332 251 247 259 180 192 277 285 297 296 249 213 13 332 325 15 18 355 346 338 341 346 346 343 337 336 335
69 76 342 355 4 25 60 68 59 60 81 84 78 110 168 145 129 113 82 74 65 43 22 24 74 125 100 81 71 43 358 314 292 300 324 64 62 26 93 72 14 4 346 320 309 59 1 177 277 307 338 325 287 24 59 104 38 349 345 42 36 349 17 356 298 290 70 304 255 284 284 264 268 325 307 340 28 1 347 343 338 341 340 335 332 331 332 333
67 13 326 352 4 83 95 65 43 44 78 95 87 104 135 144 136 131 123 101 84 63 36 23 76 105 122 158 48 43 346 297 271 283 10 99 26 46 117 95 32 17 0 310 322 60 57 285 282 286 275 266 278 14 60 61 77 62 320 41 43 354 54 85 273 305 7 319 312 283 271 277 298 252 237 25 6 348 344 343 340 339 333 328 329 334 336 332
56 4 343 352 27 120 105 80 56 47 58 88 95 93 107 134 134 141 156 134 105 81 44 34 32 98 149 145 79 83 242 269 281 313 23 16 35 87 106 103 52 25 8 314 332 46 52 227 257 274 270 268 291 33 43 28 52 56 326 19 27 353 116 180 251 348 1 283 295 273 255 273 324 277 299 341 342 341 339 338 337 332 325 325 332 337 334 327
73 44 27 13 244 164 113 72 98 96 88 102 93 78 81 107 125 142 159 157 148 154 150 138 275 255 154 139 132 170 209 239 333 354 19 21 69 111 106 87 66 29 354 303 346 5 323 211 193 308 310 336 353 0 8 2 25 23 325 333 351 345 350 327 296 66 226 230 220 244 262 265 318 325 327 329 329 331 331 332 330 324 320 325 331 331 325 318
62 36 35 30 44 155 104 78 113 124 121 111 100 112 118 93 112 130 106 124 149 155 164 148 148 166 135 123 130 161 215 223 163 21 22 20 291 290 131 166 187 323 299 278 292 330 322 288 319 326 306 291 300 292 304 351 331 314 320 330 327 313 302 305 279 243 248 228 213 237 269 277 299 314 315 315 319 326 326 322 318 315 318 324 323 320 317 314
11 355 35 30 45 82 84 90 115 122 136 146 122 151 182 121 146 166 120 115 164 162 110 123 135 145 124 117 147 219 220 195 182 324 346 262 264 356 92 234 270 299 296 268 235 209 265 280 242 238 243 250 276 289 309 331 312 289 294 299 296 287 273 269 258 246 258 276 262 252 269 284 294 300 303 312 321 319 312 309 310 316 320 321 318 315 315 319
58 14 60 39 52 72 74 75 95 112 142 171 145 147 169 145 132 167 168 186 174 168 156 134 168 197 160 145 204 235 208 187 183 229 261 233 232 290 293 286 287 266 180 151 173 197 266 269 238 239 248 258 276 287 298 308 291 281 289 288 278 275 269 256 244 249 268 293 277 263 272 283 289 297 306 312 308 300 302 311 320 324 323 321 320 320 324 327
170 131 125 129 71 62 70 75 98 108 113 119 121 151 161 155 155 168 176 173 166 178 194 181 198 226 222 186 191 241 213 201 197 210 233 241 259 304 299 294 127 145 146 131 145 93 339 253 241 247 261 269 277 282 286 288 281 280 281 277 273 269 263 251 248 253 258 261 265 275 283 281 287 297 297 293 292 300 316 324 326 327 326 326 326 327 327 325
136 136 137 141 117 89 98 115 121 115 103 89 115 188 175 172 181 168 151 146 162 210 222 221 204 211 224 227 217 237 249 254 239 213 209 257 271 294 297 172 135 149 149 131 152 149 155 241 263 297 286 278 274 276 279 279 280 280 274 269 268 266 263 260 259 260 257 255 262 274 278 277 282 286 284 293 308 319 325 326 331 336 336 334 331 327 321 317
163 165 154 133 111 102 107 118 127 125 110 87 144 190 185 190 185 159 151 163 169 196 201 226 241 197 192 205 218 238 260 308 304 273 295 320 305 315 299 267 129 153 173 180 180 173 177 271 328 338 293 272 260 260 264 266 275 281 280 278 273 269 269 266 265 265 262 263 263 266 272 276 280 288 299 313 321 325 327 333 340 340 334 329 324 318 313 311
218 220 165 130 104 117 125 124 141 153 158 191 195 165 182 214 183 152 162 192 205 188 174 211 245 200 173 197 220 243 259 274 284 284 291 288 275 276 273 269 299 218 217 226 183 166 184 273 319 308 278 270 262 261 263 273 289 285 281 279 272 260 247 242 243 242 246 261 271 272 275 280 298 309 313 322 331 336 340 341 339 331 324 319 314 308 306 305
211 188 162 136 105 160 158 140 199 237 172 181 181 157 178 207 163 148 159 193 208 232 199 213 235 198 174 209 222 245 256 259 271 282 285 281 277 277 273 270 273 272 256 253 226 183 200 242 293 287 276 272 263 271 281 323 307 284 266 256 249 234 232 246 248 247 253 271 285 286 284 293 314 327 330 337 345 342 332 328 325 320 315 310 306 304 303 304